Wetbulb
61.09 63.23 64.18 66.84 66.96 69.77 71.01 72.75 72.19 74.09 73.38 71.91 70.29 69.04 67.39 68.60 68.02 68.57 69.58 69.50 69.71 69.99 69.56 68.63 67.75 67.87 68.04 67.24 66.73 65.89 63.23 64.91 66.59 64.90 63.85 65.31 65.21 65.88 64.81 64.80 65.44 65.86 67.11
60.14 61.69 63.76 65.32 68.22 68.82 69.93 70.18 70.72 73.78 73.59 72.25 71.52 70.02 69.57 67.96 68.06 68.28 69.66 69.81 69.41 69.26 68.86 68.11 67.10 67.51 67.75 66.12 65.20 65.09 63.94 64.17 66.38 62.62 62.90 59.17 61.79 63.44 64.15 64.56 64.89 66.64 67.02
59.80 60.98 62.36 64.87 67.86 68.02 68.73 68.93 69.94 72.11 73.43 73.09 71.38 70.37 69.45 68.76 67.26 67.04 67.53 68.76 68.54 68.27 68.19 67.74 67.04 66.90 66.86 65.60 66.17 65.61 63.99 63.08 64.09 64.53 63.43 58.79 55.86 59.09 63.57 64.69 65.22 67.10 67.83
60.35 61.49 61.73 67.01 67.10 67.75 68.89 69.74 70.63 71.56 71.71 72.24 70.30 71.43 66.93 64.99 65.81 67.84 67.45 67.47 67.48 66.91 66.83 67.18 66.78 66.95 66.66 66.07 65.59 65.77 64.76 63.96 62.57 64.88 65.97 65.10 64.38 58.72 57.63 63.09 66.38 68.33 68.31
60.14 60.55 61.88 66.76 67.14 67.95 68.61 70.18 70.23 70.25 70.63 71.25 71.27 67.36 68.42 66.19 66.50 66.56 66.72 67.78 68.27 66.75 65.66 66.57 66.15 66.24 67.28 65.94 65.65 64.50 64.36 66.02 64.99 64.42 64.18 63.72 62.82 61.69 61.92 57.96 61.50 67.08 68.94
60.59 61.52 66.43 66.69 66.91 68.04 68.89 68.96 68.36 68.66 68.74 68.54 68.60 69.10 67.29 66.17 65.19 65.49 65.48 66.11 66.55 66.04 65.91 65.64 65.97 66.37 66.29 65.66 66.31 65.31 64.97 65.99 66.06 66.99 64.32 62.21 61.43 60.78 59.19 63.29 63.91 63.56 65.91
62.77 63.99 64.81 65.12 66.05 66.96 67.44 67.63 67.66 67.16 67.83 67.79 67.55 67.92 67.95 67.42 66.32 65.53 65.52 64.94 65.06 66.22 65.70 65.79 65.92 66.53 66.79 66.38 66.41 65.89 65.82 66.14 65.31 65.41 64.53 64.52 64.00 66.15 65.41 64.23 64.38 62.33 65.46
63.49 63.81 64.80 65.28 65.83 66.40 66.78 66.80 66.84 66.46 67.02 67.06 67.43 67.77 67.96 66.20 65.82 65.86 65.46 64.94 64.63 64.83 65.90 65.87 66.21 66.36 65.83 66.13 66.84 68.08 66.85 66.26 66.44 65.68 66.37 66.10 64.90 66.46 68.42 66.08 65.24 61.92 62.41
63.60 63.91 64.93 65.52 65.70 65.93 66.37 66.69 66.62 66.40 66.71 66.65 67.35 67.66 67.46 66.52 66.50 67.03 66.85 65.65 66.98 64.92 65.45 65.61 65.70 65.86 65.98 65.92 66.23 66.61 65.53 66.02 65.79 66.61 66.49 66.34 68.60 67.32 67.24 69.04 66.61 66.56 60.14
63.52 64.13 64.57 65.10 65.61 65.99 66.61 67.20 66.96 66.23 66.08 66.87 66.84 66.86 66.72 66.75 66.94 66.51 65.82 65.57 65.84 64.93 64.81 64.95 65.56 65.41 65.57 65.64 66.13 66.04 66.30 65.79 65.12 66.01 66.02 66.53 65.80 67.65 67.93 69.04 68.71 67.65 63.96
62.96 63.64 64.30 65.23 65.53 66.05 66.34 66.23 65.74 65.42 65.83 66.39 67.04 66.38 66.22 66.01 66.64 66.08 65.39 65.29 65.48 64.88 64.23 64.47 64.53 64.36 64.67 66.30 66.56 66.02 65.13 64.24 65.44 65.54 65.22 65.75 66.86 67.96 67.72 67.70 66.88 65.53 63.29
63.45 63.89 64.28 64.79 65.02 65.41 65.64 64.80 65.10 64.61 65.60 66.01 66.45 66.38 66.34 66.62 66.26 66.01 65.40 65.49 64.59 64.51 64.27 64.23 64.23 63.98 65.22 65.68 65.48 63.98 64.14 64.24 64.46 65.48 65.32 65.15 65.83 66.51 67.04 65.65 64.90 64.17 62.29
63.06 63.57 63.95 64.16 64.70 65.10 64.60 64.06 64.39 64.42 65.01 65.69 65.72 66.29 66.01 66.34 66.29 66.08 66.22 65.00 64.42 64.08 64.20 64.42 63.86 64.22 64.89 65.24 64.45 63.61 64.05 64.14 64.93 65.28 65.58 65.46 66.08 65.78 65.75 64.57 63.51 63.29 61.69
62.64 63.11 63.50 64.10 64.84 64.72 63.60 63.29 63.67 64.12 64.80 65.00 65.27 65.35 65.57 65.79 66.40 65.73 65.28 64.96 64.18 63.79 65.26 64.72 64.65 64.65 64.70 64.87 64.82 62.88 64.39 64.31 64.51 65.12 66.24 65.71 66.13 65.70 65.22 63.91 62.75 61.13 60.22
61.67 62.71 62.89 63.89 64.28 64.00 63.34 62.99 63.46 63.56 64.60 64.46 64.95 65.51 66.13 66.19 65.79 65.17 65.09 64.84 64.78 64.78 65.16 64.36 64.60 65.13 65.07 64.31 65.36 65.16 65.15 63.08 63.40 65.10 64.93 64.66 61.66 60.70 63.11 63.25 63.10 61.12 60.31
61.49 62.58 63.23 63.90 63.93 63.25 62.18 62.62 63.09 63.08 64.35 64.31 64.34 65.30 65.25 65.26 65.41 65.01 65.27 64.78 65.13 64.58 65.52 64.71 64.16 64.59 63.93 50.54 54.03 60.10 65.24 64.29 64.24 63.21 62.28 62.62 61.63 56.98 54.91 57.14 58.11 60.18 59.94
61.90 62.76 63.35 64.00 63.93 63.09 62.53 62.34 62.92 63.50 63.85 64.12 64.35 64.34 64.92 64.60 64.83 64.87 64.33 64.53 65.80 66.76 65.37 64.79 64.96 64.75 63.50 49.65 49.49 53.04 65.74 66.00 65.69 64.89 64.43 62.69 61.67 61.02 61.90 54.04 53.83 54.76 54.22
62.76 63.31 64.02 64.65 64.39 63.67 62.58 63.10 62.89 62.95 63.38 63.71 63.90 64.28 64.71 64.72 64.41 64.79 65.05 65.64 66.39 65.75 65.47 65.47 65.27 64.64 61.50 49.31 49.13 52.03 66.22 66.36 65.66 65.75 65.22 63.85 63.91 62.82 63.05 62.71 62.75 61.68 60.96
64.24 64.53 65.40 65.55 64.48 63.05 62.80 62.75 61.85 62.54 62.83 63.12 63.78 63.98 65.09 64.73 64.96 64.50 65.45 66.38 66.88 66.56 65.86 65.52 65.19 64.66 62.38 48.40 47.31 55.93 65.42 64.61 65.18 65.31 65.33 65.00 64.22 51.27 51.87 63.72 61.17 59.45 57.69
65.38 65.18 65.63 65.80 64.07 63.42 63.12 62.45 61.46 61.63 61.97 63.05 63.98 64.64 65.27 64.98 64.58 65.35 65.95 66.54 66.65 65.92 65.67 65.25 65.77 59.50 63.40 47.84 46.05 55.07 64.82 64.73 64.11 65.60 64.62 52.04 59.97 48.95 50.74 63.92 61.55 59.06 59.17
65.79 66.27 66.00 65.22 63.99 63.73 63.12 61.94 61.54 61.02 62.56 63.44 64.80 65.10 65.74 65.49 66.38 65.98 66.25 66.19 65.57 65.54 66.00 65.36 65.67 65.41 63.68 59.98 46.77 47.86 65.80 65.17 64.59 63.07 63.48 61.72 45.27 48.20 51.48 56.14 62.20 60.86 61.52
64.89 65.93 65.42 65.10 64.40 63.71 62.88 61.92 61.63 62.29 62.84 63.16 64.40 65.23 65.83 65.52 66.18 66.42 65.61 65.15 65.29 65.02 65.57 65.04 64.64 64.32 64.79 54.85 48.40 47.50 51.85 56.02 64.93 62.37 63.36 57.07 45.07 45.84 50.51 57.25 47.33 48.38 56.32
64.86 66.10 65.50 65.14 64.10 63.71 63.14 62.00 62.65 62.53 62.57 62.56 64.08 64.89 65.82 65.67 66.38 65.80 64.52 63.61 64.46 64.42 64.31 64.01 63.51 63.28 64.23 62.60 48.11 49.67 48.95 52.62 65.21 64.78 53.93 44.98 44.01 43.31 48.14 45.77 47.57 49.20 63.89
64.87 66.07 65.72 64.58 63.36 63.54 63.15 63.28 63.18 62.59 62.52 62.01 63.49 64.21 64.55 64.66 65.88 64.92 64.19 62.87 62.63 63.82 63.92 62.65 62.55 63.27 63.78 63.63 63.67 63.44 61.87 51.40 59.04 52.66 58.18 55.21 52.42 47.01 53.56 53.50 53.85 63.67 64.91
64.69 65.97 65.68 64.72 63.63 63.67 63.23 63.56 63.43 62.57 62.32 63.05 62.79 63.85 64.14 64.69 64.84 65.33 64.10 63.23 65.29 60.72 63.27 63.93 64.33 63.92 63.39 63.61 59.05 60.26 63.89 64.62 60.19 62.11 62.68 62.26 63.15 62.68 60.49 61.07 62.62 64.11 64.54
64.82 65.37 65.87 65.73 64.50 63.90 63.10 63.19 63.46 62.69 62.89 63.57 62.43 62.51 63.15 63.82 64.28 64.28 64.18 43.78 47.55 47.65 48.17 46.55 56.17 63.27 52.93 48.59 47.83 47.96 46.14 46.30 48.38 62.10 62.31 61.87 62.38 62.63 62.18 61.60 61.76 62.24 60.02
MSLP
996.08 995.89 995.70 995.73 996.21 997.12 997.99 998.98 999.84 1000.77 1001.73 1002.68 1003.16 1003.38 1003.75 1004.45 1004.83 1005.21 1005.77 1006.39 1006.57 1006.70 1007.27 1007.71 1008.13 1008.22 1008.21 1008.40 1008.52 1008.79 1008.99 1009.02 1009.19 1009.28 1009.51 1009.60 1009.22 1009.13 1008.91 1009.18 1008.75 1008.84 1009.03
995.13 994.94 994.84 995.27 996.42 997.29 998.48 999.40 1000.11 1000.63 1001.55 1002.11 1002.70 1002.97 1003.49 1004.02 1004.33 1004.77 1005.43 1006.09 1006.29 1006.50 1007.14 1007.59 1007.98 1007.99 1008.09 1008.10 1008.16 1008.49 1008.82 1009.07 1009.13 1009.21 1009.25 1009.33 1009.51 1008.81 1008.63 1008.65 1008.60 1008.44 1008.74
994.08 994.17 994.46 994.76 996.58 997.67 998.74 999.55 1000.15 1000.90 1001.59 1001.91 1002.48 1003.17 1003.78 1003.93 1004.44 1004.78 1005.33 1005.57 1006.08 1006.46 1006.91 1007.27 1007.62 1007.54 1007.66 1007.65 1008.08 1008.38 1008.57 1008.69 1008.93 1008.96 1008.80 1008.67 1008.11 1007.96 1008.21 1008.35 1008.20 1008.49 1008.92
993.07 993.44 993.70 994.96 996.80 997.90 998.83 999.63 1000.42 1001.17 1001.44 1002.08 1002.70 1003.25 1003.53 1003.66 1003.71 1004.30 1004.69 1005.45 1006.04 1006.63 1006.83 1007.21 1007.28 1007.42 1007.41 1007.75 1007.86 1007.92 1008.06 1008.20 1008.26 1008.71 1008.63 1008.21 1007.67 1007.38 1007.84 1008.19 1008.58 1008.75 1008.94
992.33 992.64 993.04 995.16 996.93 998.04 998.95 999.88 1000.78 1001.39 1001.80 1002.29 1002.72 1003.30 1003.25 1003.67 1004.06 1004.49 1005.25 1005.96 1006.36 1006.68 1006.79 1007.01 1007.13 1007.28 1007.56 1007.50 1007.47 1007.56 1007.74 1008.00 1008.08 1008.11 1007.78 1007.33 1006.89 1007.23 1007.36 1007.21 1008.18 1008.69 1008.69
991.17 992.04 993.65 995.73 997.13 998.26 999.37 1000.28 1000.95 1001.64 1002.13 1002.45 1002.98 1003.16 1003.63 1003.82 1004.07 1004.68 1005.06 1005.81 1006.34 1006.68 1006.88 1006.63 1006.84 1006.94 1007.13 1007.28 1007.12 1007.14 1007.57 1007.77 1007.77 1007.85 1007.09 1006.78 1006.83 1006.31 1006.37 1006.78 1007.52 1007.90 1008.42
991.76 993.09 994.83 996.07 997.34 998.38 999.41 1000.30 1001.03 1001.81 1002.30 1002.68 1003.13 1003.56 1004.02 1004.38 1004.70 1005.03 1004.91 1005.74 1006.18 1006.52 1006.72 1006.73 1006.85 1007.05 1007.30 1007.17 1006.94 1007.06 1007.34 1007.54 1007.56 1007.56 1006.98 1006.79 1006.91 1006.87 1006.46 1007.15 1007.64 1007.93 1008.73
992.87 993.99 995.24 996.33 997.40 998.49 999.40 1000.06 1001.10 1001.77 1002.32 1002.75 1003.23 1003.62 1004.08 1004.12 1004.30 1004.97 1004.74 1005.20 1005.72 1006.33 1006.51 1006.74 1006.99 1007.10 1007.13 1007.06 1007.07 1007.11 1007.11 1007.20 1007.29 1007.33 1007.20 1007.01 1006.57 1006.88 1007.12 1007.24 1007.54 1008.00 1008.94
993.35 994.38 995.57 996.46 997.49 998.53 999.40 1000.25 1000.98 1001.68 1002.27 1002.83 1003.25 1003.69 1004.21 1004.18 1004.74 1005.21 1005.46 1005.52 1005.89 1006.16 1006.42 1006.57 1006.86 1006.91 1006.59 1006.68 1006.76 1007.03 1006.96 1007.05 1007.11 1007.09 1007.18 1007.06 1007.16 1007.19 1006.98 1007.17 1007.12 1007.49 1008.84
993.63 994.77 995.78 996.74 997.82 998.72 999.60 1000.33 1001.03 1001.68 1002.28 1002.78 1003.22 1003.64 1004.12 1004.61 1005.11 1005.42 1005.32 1005.56 1005.94 1006.05 1006.37 1006.43 1006.47 1006.55 1006.34 1006.41 1006.83 1007.05 1007.05 1007.06 1007.11 1007.00 1007.04 1007.04 1006.72 1006.95 1007.23 1007.38 1007.65 1008.01 1008.75
993.75 994.91 995.90 997.05 998.05 998.93 999.77 1000.56 1001.11 1001.71 1002.27 1002.72 1003.18 1003.75 1004.17 1004.44 1004.95 1005.40 1005.60 1005.75 1006.25 1006.32 1006.28 1006.32 1006.27 1006.11 1006.15 1006.55 1006.76 1007.10 1007.04 1006.98 1006.95 1007.37 1007.24 1006.95 1006.98 1007.21 1007.51 1007.80 1007.93 1008.62 1009.47
993.82 994.85 995.89 997.08 998.03 998.92 999.82 1000.45 1001.06 1001.53 1002.16 1002.47 1002.94 1003.70 1004.23 1004.36 1005.08 1005.50 1005.54 1005.85 1006.16 1006.28 1006.11 1006.15 1006.05 1006.01 1006.42 1006.83 1006.99 1007.16 1007.14 1007.07 1007.05 1006.84 1006.78 1006.86 1006.94 1007.32 1007.89 1008.36 1008.62 1009.14 1010.09
993.81 994.92 996.09 996.94 997.84 998.80 999.62 1000.24 1000.83 1001.37 1001.87 1002.10 1002.70 1003.43 1003.88 1004.44 1005.05 1005.34 1005.68 1005.87 1005.99 1006.13 1005.94 1005.87 1005.98 1006.08 1006.71 1007.04 1007.38 1007.50 1007.52 1007.32 1007.18 1006.90 1007.01 1007.02 1007.34 1007.85 1008.44 1008.88 1009.41 1010.22 1010.82
993.97 994.95 995.98 996.78 997.65 998.63 999.33 1000.01 1000.52 1001.06 1001.54 1001.89 1002.42 1003.21 1003.86 1004.22 1005.05 1005.11 1005.47 1005.69 1005.89 1005.98 1006.10 1005.86 1006.35 1006.54 1006.93 1007.18 1007.33 1007.97 1007.80 1007.84 1007.66 1007.39 1007.26 1007.25 1007.62 1008.16 1008.68 1009.31 1010.27 1010.95 1011.63
993.95 994.84 995.67 996.53 997.53 998.43 999.18 999.88 1000.32 1000.89 1001.51 1001.76 1002.29 1003.24 1003.85 1004.15 1004.60 1005.05 1005.31 1005.49 1005.73 1005.93 1006.16 1006.31 1006.31 1006.72 1007.05 1007.56 1007.57 1007.83 1007.94 1008.21 1008.21 1008.10 1008.21 1008.47 1008.64 1008.57 1009.05 1009.68 1010.69 1011.55 1012.28
993.69 994.61 995.47 996.37 997.29 998.25 999.01 999.74 1000.19 1000.88 1001.47 1001.81 1002.48 1003.28 1003.82 1004.23 1004.67 1005.14 1005.67 1005.92 1006.07 1006.20 1006.37 1006.44 1006.78 1007.17 1007.36 1008.38 1008.43 1008.51 1008.27 1008.42 1008.60 1008.80 1008.98 1009.22 1009.28 1009.51 1009.70 1010.35 1011.27 1011.79 1012.38
993.74 994.63 995.39 996.24 997.07 998.04 998.83 999.73 1000.22 1000.95 1001.42 1001.76 1002.53 1003.20 1003.81 1004.31 1004.78 1005.06 1005.40 1005.74 1006.08 1006.19 1006.28 1006.35 1006.92 1007.25 1008.40 1008.96 1008.99 1008.71 1008.43 1008.64 1008.65 1008.94 1009.23 1009.64 1010.14 1010.31 1010.60 1011.21 1011.90 1012.65 1013.38
993.66 994.61 995.45 996.41 997.31 997.96 998.78 999.68 1000.28 1000.81 1001.23 1001.66 1002.31 1003.00 1003.47 1004.14 1004.68 1005.17 1005.56 1006.04 1006.51 1006.70 1006.89 1006.85 1007.43 1007.86 1008.95 1009.38 1009.37 1009.11 1008.88 1008.96 1009.07 1009.13 1009.34 1010.03 1010.45 1010.91 1011.21 1011.80 1012.56 1013.52 1014.19
993.59 994.47 995.36 996.46 997.42 998.10 998.81 999.57 1000.10 1000.61 1000.99 1001.46 1002.14 1002.70 1003.20 1003.90 1004.52 1005.05 1005.66 1006.30 1006.78 1007.11 1007.29 1007.39 1007.61 1007.93 1009.10 1009.71 1009.74 1009.43 1009.25 1009.41 1009.41 1009.53 1009.99 1010.28 1010.84 1011.71 1011.91 1012.10 1013.01 1014.12 1014.89
993.53 994.28 995.23 996.38 997.39 998.23 998.87 999.39 999.94 1000.38 1000.77 1001.22 1001.96 1002.49 1003.04 1003.83 1004.40 1005.15 1005.66 1006.08 1006.59 1006.73 1007.24 1007.49 1007.77 1008.26 1009.16 1009.91 1010.03 1010.01 1009.74 1009.75 1009.93 1010.13 1010.76 1010.98 1011.63 1012.11 1012.26 1012.60 1013.27 1014.10 1014.83
993.78 994.30 995.18 996.23 997.35 998.22 998.96 999.28 999.77 1000.15 1000.61 1001.10 1001.84 1002.46 1003.13 1003.89 1004.54 1005.31 1005.79 1006.06 1006.27 1006.51 1007.26 1007.63 1007.87 1008.40 1009.07 1010.09 1010.35 1010.28 1009.93 1009.88 1009.99 1010.37 1011.09 1012.16 1012.45 1012.64 1012.91 1013.19 1013.64 1013.78 1014.48
994.19 994.20 995.03 996.08 997.20 998.04 998.83 999.17 999.60 1000.01 1000.45 1001.01 1001.71 1002.44 1003.29 1003.69 1004.43 1005.31 1005.75 1006.07 1006.42 1006.87 1007.42 1007.85 1008.07 1008.68 1009.33 1010.12 1010.42 1010.45 1010.38 1010.36 1010.05 1010.46 1011.29 1012.76 1012.88 1013.01 1013.18 1013.29 1013.33 1013.82 1014.29
993.77 994.04 994.81 995.90 996.98 997.78 998.49 998.95 999.52 999.89 1000.25 1000.93 1001.63 1002.49 1003.28 1003.66 1004.38 1005.21 1005.73 1006.00 1006.47 1006.45 1007.07 1007.53 1007.69 1008.33 1008.98 1010.12 1010.63 1010.68 1010.71 1010.68 1010.47 1010.82 1012.13 1012.86 1013.09 1013.19 1013.42 1013.53 1013.57 1013.76 1013.49
993.65 993.91 994.55 995.51 996.62 997.42 998.20 998.68 999.35 999.73 1000.08 1000.83 1001.61 1002.46 1003.17 1003.61 1004.35 1005.01 1005.56 1005.43 1005.87 1005.85 1006.03 1006.99 1007.46 1007.92 1008.50 1009.52 1010.38 1010.76 1011.05 1011.15 1011.56 1011.84 1012.56 1012.79 1012.86 1013.03 1013.30 1013.77 1013.80 1013.27 1012.70
993.88 993.97 994.35 995.10 996.10 997.00 997.75 998.36 998.93 999.41 999.92 1000.76 1001.55 1002.28 1002.88 1003.52 1004.13 1004.59 1005.26 1005.20 1005.41 1005.67 1005.86 1006.00 1006.54 1007.36 1007.91 1008.90 1009.61 1010.29 1010.55 1010.71 1011.16 1011.62 1012.28 1012.45 1012.35 1012.48 1012.84 1012.84 1012.53 1012.19 1012.52
994.65 994.03 994.33 994.68 995.40 996.36 997.11 997.75 998.40 999.05 999.69 1000.51 1001.28 1001.86 1002.27 1003.19 1003.49 1004.11 1005.08 1005.92 1006.09 1006.02 1006.41 1006.67 1006.70 1007.11 1007.57 1008.72 1009.78 1010.33 1010.56 1010.84 1011.25 1011.36 1011.51 1011.61 1011.53 1011.50 1011.74 1011.84 1011.95 1012.17 1012.61
Wind_Speed
26 22 19 15 11 9 9 11 12 13 13 12 13 12 11 9 8 6 6 6 7 5 5 5 7 6 6 7 8 7 5 6 6 4 4 4 7 6 8 6 9 6 8
26 24 19 13 7 7 10 13 14 14 13 11 10 9 8 9 7 7 6 5 6 6 3 5 6 8 6 8 8 8 6 4 5 5 5 5 5 8 9 7 3 8 5
24 20 17 9 7 10 12 14 14 15 13 12 8 6 5 4 4 5 6 8 6 6 4 5 6 6 6 3 6 7 9 6 6 10 4 4 6 9 5 8 9 7 7
20 19 18 10 9 11 13 14 15 16 13 12 10 10 8 7 4 1 2 3 2 3 2 4 6 6 4 3 6 7 7 9 7 6 8 9 4 5 7 4 6 7 9
20 20 13 13 11 12 13 15 17 15 14 11 10 9 6 5 3 2 2 3 1 3 6 5 5 6 2 4 4 5 5 5 6 6 8 9 6 6 6 9 9 6 7
19 9 14 14 13 14 15 16 18 15 14 12 11 7 5 2 2 3 2 4 3 3 4 5 3 1 3 3 5 4 6 4 5 5 7 5 6 4 4 3 7 7 6
10 11 14 15 16 17 18 17 17 16 14 12 10 9 7 5 4 3 5 5 4 4 6 3 2 1 3 5 3 5 4 5 3 5 5 4 5 3 4 2 4 4 2
9 12 15 16 18 19 19 18 17 16 14 12 10 8 8 7 4 3 3 6 5 4 6 3 4 2 4 4 3 4 3 4 3 5 5 3 3 2 3 3 5 5 4
12 15 16 17 19 18 18 17 17 15 13 12 9 8 6 3 8 5 3 5 4 7 5 3 3 4 7 3 2 1 1 2 3 4 3 4 3 6 1 3 8 5 6
16 17 17 18 17 17 16 16 15 14 13 12 9 8 7 6 6 5 4 4 6 4 4 3 4 2 4 2 2 1 3 4 4 5 3 5 4 1 2 3 3 3 9
17 18 18 18 17 16 16 14 14 13 12 11 8 7 5 7 6 4 6 5 6 5 5 5 4 3 2 1 1 3 3 4 4 4 5 4 2 2 4 5 5 7 10
18 18 19 18 17 17 16 14 13 12 11 10 9 6 6 4 5 6 7 7 6 5 5 4 4 4 5 2 2 4 2 5 5 5 5 4 4 5 7 7 7 7 14
19 19 18 18 17 16 15 14 12 13 12 10 10 8 6 5 4 5 6 7 7 6 6 5 4 6 5 5 7 6 3 0 3 3 5 7 9 9 8 9 10 10 10
18 18 17 16 16 16 15 14 13 12 11 10 9 8 5 6 7 7 7 7 7 7 4 4 4 6 6 4 7 6 4 3 2 2 6 7 9 11 12 11 12 12 11
18 18 17 16 16 15 14 13 12 12 11 9 9 8 6 7 8 7 7 7 7 3 3 4 5 6 5 6 5 6 8 7 5 8 9 10 9 7 12 11 12 15 11
18 18 18 18 17 16 14 13 13 12 11 10 10 9 9 9 8 7 6 4 5 6 4 3 6 5 7 9 11 8 6 7 6 7 8 7 11 13 11 14 13 13 16
15 16 17 17 16 15 14 13 12 12 11 11 11 11 10 10 9 8 8 8 7 4 7 7 5 8 8 8 9 9 5 8 8 9 10 9 8 11 15 17 17 16 14
13 15 14 15 15 16 15 13 13 13 12 12 12 12 12 11 9 6 7 6 5 4 3 4 9 6 7 4 5 8 7 6 8 9 12 8 13 11 13 15 15 13 10
12 13 14 15 14 15 16 14 14 13 12 13 12 12 12 10 11 8 7 7 7 6 6 5 8 8 8 3 2 7 8 5 9 10 9 10 14 12 12 16 15 12 9
11 13 16 16 15 15 16 15 15 14 13 13 12 12 12 11 9 8 7 7 7 7 7 6 6 10 9 4 2 5 6 9 7 9 10 13 12 9 10 14 14 13 12
7 13 16 15 15 15 15 15 15 14 13 13 13 12 11 11 11 8 6 6 6 7 7 8 7 9 10 7 3 7 7 7 8 11 11 9 8 11 9 12 10 13 13
12 15 15 15 15 16 15 15 15 14 14 13 14 12 12 10 10 9 7 7 6 7 6 9 8 8 8 7 5 7 6 4 8 10 11 7 7 9 9 7 12 15 13
11 14 15 16 16 16 16 15 15 15 15 14 13 13 12 9 11 9 8 7 7 7 8 8 7 8 8 7 6 4 9 9 2 10 12 11 9 11 10 9 11 14 9
10 13 16 17 17 16 16 15 15 15 15 15 14 13 12 10 11 9 8 7 7 6 9 9 6 7 8 9 8 7 7 10 10 13 9 6 7 5 10 6 6 8 8
6 11 14 15 17 17 17 16 16 16 15 14 14 13 12 11 11 9 7 7 7 5 5 6 10 10 9 9 10 11 9 8 9 11 8 7 7 9 9 9 9 7 7
6 9 13 16 17 18 18 18 17 17 15 13 13 12 11 12 11 10 8 11 8 10 10 12 5 7 8 18 13 9 10 13 14 8 9 9 8 9 10 10 8 8 7
Wind_Direction
274 271 269 263 246 252 208 193 175 184 172 191 193 192 183 196 196 209 214 237 248 242 269 262 259 260 258 246 240 236 244 236 244 233 238 247 258 225 202 230 216 212 213
271 267 261 262 194 199 188 183 183 174 177 182 195 188 192 184 196 198 198 223 262 275 264 239 246 250 249 234 229 227 227 233 222 204 206 195 216 236 226 214 214 197 223
259 267 266 231 183 186 180 179 175 166 182 172 171 150 168 151 172 200 213 211 220 260 238 253 250 254 243 261 239 233 226 225 211 217 216 179 212 186 195 215 213 184 225
258 246 249 139 178 176 168 162 160 163 164 154 154 162 178 196 183 201 33 347 202 303 273 258 233 225 243 231 238 226 225 218 214 200 225 252 238 197 178 204 240 215 210
244 248 231 142 166 153 155 148 149 160 140 170 158 172 204 154 175 183 110 206 196 259 264 198 207 219 198 242 226 216 198 219 204 206 214 207 217 210 239 172 197 210 224
228 210 109 139 144 149 145 147 151 143 158 149 146 195 138 131 167 196 272 127 202 213 254 209 208 141 225 232 224 175 186 207 210 211 251 211 230 242 196 160 178 187 186
112 137 147 151 151 148 147 149 147 149 150 147 153 138 149 143 183 226 179 163 184 191 205 185 197 207 229 237 202 202 203 194 209 225 244 214 211 276 332 205 167 160 130
146 155 154 149 148 146 149 146 149 149 152 151 153 148 136 179 198 190 14 115 199 191 145 193 120 218 202 216 214 229 213 224 205 233 240 233 224 256 245 215 160 149 100
153 147 145 148 145 147 148 149 148 148 152 154 150 144 177 116 71 98 191 132 214 118 176 144 175 210 210 196 228 289 238 265 234 249 234 246 276 245 190 209 227 145 142
146 143 146 144 142 146 144 146 148 151 153 156 154 149 149 153 139 159 199 154 103 150 167 186 195 181 223 148 128 243 229 225 244 239 200 209 258 98 204 160 176 100 136
146 150 145 141 144 142 144 147 148 153 156 155 162 132 154 160 151 161 162 149 159 171 200 194 229 225 173 74 209 188 231 180 237 133 220 213 240 138 112 91 93 109 111
152 148 143 149 148 147 150 152 153 151 160 168 141 145 140 148 152 180 157 164 173 190 215 202 226 244 91 81 167 135 158 178 199 220 221 165 178 101 108 94 85 114 133
152 148 151 154 151 152 155 153 157 158 166 168 153 144 135 155 157 175 142 171 163 197 214 189 190 73 62 81 90 59 142 230 196 209 192 174 129 116 116 104 99 96 113
154 154 159 157 154 158 155 154 163 160 158 163 161 141 150 144 150 148 154 167 179 180 206 168 104 114 107 84 108 121 122 47 59 196 115 121 122 129 122 117 107 111 119
166 163 164 160 156 158 155 158 159 157 158 157 138 131 131 139 141 150 162 163 170 152 141 140 134 84 114 69 51 96 108 110 56 56 55 64 61 110 130 132 130 132 133
169 168 165 160 161 157 159 159 158 152 161 156 133 143 144 140 139 146 134 145 159 158 134 122 114 183 85 38 29 20 107 117 115 102 79 80 84 70 82 102 117 127 137
172 172 168 163 160 160 160 162 158 158 161 156 145 140 142 137 149 161 155 148 143 155 159 159 116 101 101 43 17 358 85 108 117 116 124 102 89 91 102 92 98 92 87
172 173 168 163 163 158 157 162 158 166 166 154 152 149 154 148 148 145 143 123 117 119 125 132 122 133 105 74 5 330 94 98 112 125 112 115 117 109 115 112 113 113 106
171 173 166 162 165 164 156 164 162 169 170 158 155 165 144 145 147 157 145 148 150 155 156 171 152 150 128 124 331 319 103 103 102 108 109 122 114 119 131 123 111 105 97
171 171 164 160 168 169 162 168 165 173 174 163 164 167 152 146 139 138 150 160 163 160 141 149 162 126 123 149 331 327 100 114 108 110 102 73 99 96 137 119 120 126 137
204 169 163 165 170 169 170 176 169 177 175 164 164 162 149 156 131 139 148 164 195 104 110 126 136 126 127 127 38 4 130 128 135 119 122 104 68 86 98 128 134 136 141
233 173 168 166 171 172 177 183 175 177 173 167 166 165 152 178 145 148 153 167 122 139 138 129 143 122 125 117 81 46 59 11 138 127 119 105 77 76 88 147 129 139 152
204 178 172 168 174 177 181 185 179 180 173 169 168 165 165 189 146 161 165 156 181 151 164 146 141 136 134 128 90 83 52 52 117 118 104 125 117 111 92 109 129 159 167
205 181 175 173 177 180 184 189 180 186 175 171 170 169 174 184 159 174 178 173 181 178 166 152 140 152 154 143 151 147 131 119 107 119 134 120 108 70 117 147 175 217 171
236 189 186 180 179 181 184 189 182 188 178 174 175 176 183 188 169 196 178 193 183 179 186 157 154 160 165 154 151 158 158 156 146 142 147 167 170 156 163 168 187 177 169
298 212 199 190 183 183 186 187 185 188 181 179 181 183 185 182 182 191 161 51 43 88 55 61 61 128 116 132 145 115 109 116 149 166 172 181 187 183 179 176 182 164 192